STARLINK-3822, 52287

Orbit data source: Space-Track

STARLINK-3822, 52287 is a payload satellite owned by SpaceX/Seattle (US) in LEO that was launched on Thu, 21 Apr 2022 UTC via an FALCON 9 launch vehicle from the Air Force Eastern Test Range (AFETR). Payload-class satellites include a variety of spacecraft equipped with specific instruments for various scientific and technological missions. These include communications satellites like Starlink; space stations such as the ISS; scientific satellites like the Hubble; Earth observation satellites from companies like Planet Labs, Umbra, and HawkEye 360; GPS; miniature CubeSats for education and research; and military/defense satellites.

Loading next visibility...
Identifier
52287, 2022-041AC
Orbit
LEO
Country
Flag of USUS
Related business
Manufacturer
SpaceX/Seattle
Mission
Operational Commercial Communications
Bus & Motor
STARLINK, Unknown motor
Mass
297 kg wet, ~275 kg dry
Launch date (UTC)
2022-04-21 (4 years ago)
Launch vehicle
FALCON 9
Launch site
Air Force Eastern Test Range (AFETR)
Object type
Payload
Rocket body
Debris
Shape & HBR
Box + 1 Pan, 10.1 m
Radar Cross Section
11.087 m², Large (>1 m²)

Expand to show TLE details & history
Last TLE update: 1 day ago

TLE from 1 day ago
0 STARLINK-3822
1 52287U 22041AC  26174.90212093  .00001331  00000-0  10173-3 0  9992
2 52287  53.1611 352.1763 0001128  86.8509 273.2611 15.08834609230403
Epoch: 2026-06-23T21:39Z
TLE epoch observation values (Epoch: 2026-06-23T21:39:03.248Z)
Latitude
-0.00005°
Longitude
115.3457°
Altitude
540.607 km
Speed
7.593 km/s
True Right ascension
23h 28m 42s
True Declination
0° 00' 00"
Sunlit
Object was in daylight at epoch
Visualization orbit readout
Latitude
Unknown
Longitude
Unknown
Altitude
Unknown
Speed
Unknown
Apparent Right ascension
Unknown
Apparent Declination
Unknown
Sunlit
N/A
Visualization observer readout
Local Sidereal Time
08:51:41
Azimuth
Unknown
Elevation
Unknown
Doppler factor
Unknown
Orbital elements
Apogee altitude
540.794 km
Perigee altitude
539.233 km
Semi-major axis
6,918.151 km
Eccentricity
0.00011
Inclination
53.1611°
RAAN
352.1763°
Arg. of periapsis
86.8509°
True anomaly
273.24819°
Mean anomaly
273.2611°
Eccentric anomaly
273.25465°
Mean motion
3.77188 °/min
Orbital period
95.44 mins
BSTAR
0.00010173
Loading maneuver chart data...
Computing Atmospheric mass density...
Loading historical data...
Loading historical data...
Loading historical data...
Loading historical data...
Loading historical data...
Loading historical data...
Loading historical data...

Documentation

Showing up to 5 results
|